Location: Izdebno
(52.6670°N, 16.2170°E)
Time: 07:33:30
(UTC+02:00)

Vanguard 1 - Pass Details

Date: 26 February 2024
Orbit: 653 x 3825 km, 34.2° (Epoch: 22 April)

Event Time Altitude Azimuth Distance (km) Brightness Sun altitude
Rises 23:04:29 0° 263° (W) 6,464 14.4 -44.1°
Reaches altitude 10° 23:08:37 10° 256° (WSW) 5,813 14.0 -44.3°
Enters shadow 23:18:39 33° 229° (SW) 4,803 13.2 -44.8°
